TimeEST,TemperatureF,Dew PointF,Humidity,Sea Level PressureIn,VisibilityMPH,Wind Direction,Wind SpeedMPH,Gust SpeedMPH,PrecipitationIn,Events,Conditions,WindDirDegrees,DateUTC
12:53 AM,25.0,19.9,81,29.98,10.0,South,5.8,-,N/A,,Overcast,190,2013-02-15 05:53:00
1:53 AM,26.1,21.0,81,29.99,10.0,Calm,Calm,-,N/A,,Overcast,0,2013-02-15 06:53:00
2:53 AM,30.0,24.1,79,29.98,9.0,South,3.5,-,N/A,,Overcast,180,2013-02-15 07:53:00
3:53 AM,30.9,26.1,82,29.97,8.0,South,5.8,-,N/A,,Overcast,170,2013-02-15 08:53:00
4:53 AM,30.9,27.0,85,29.97,7.0,SSE,4.6,-,N/A,,Mostly Cloudy,160,2013-02-15 09:53:00
5:53 AM,28.0,25.0,88,29.98,6.0,South,8.1,-,N/A,,Clear,180,2013-02-15 10:53:00
6:51 AM,28.4,26.6,93,29.96,2.0,South,5.8,-,N/A,,Clear,170,2013-02-15 11:51:00
6:53 AM,28.9,27.0,92,29.98,2.0,South,6.9,-,N/A,,Clear,170,2013-02-15 11:53:00
7:06 AM,30.2,28.4,93,29.95,1.5,SSE,9.2,-,N/A,,Partly Cloudy,160,2013-02-15 12:06:00
7:17 AM,30.2,28.4,93,29.95,0.8,South,10.4,-,N/A,,Mist,170,2013-02-15 12:17:00
7:41 AM,32.0,30.2,93,29.96,1.2,South,6.9,-,N/A,,Overcast,170,2013-02-15 12:41:00
7:53 AM,32.0,30.9,96,29.98,1.8,South,5.8,-,N/A,,Mostly Cloudy,170,2013-02-15 12:53:00
8:20 AM,30.2,28.4,93,29.97,1.8,SSW,3.5,-,N/A,,Scattered Clouds,210,2013-02-15 13:20:00
8:27 AM,32.0,30.2,93,29.97,1.8,Calm,Calm,-,N/A,,Mostly Cloudy,0,2013-02-15 13:27:00
8:53 AM,34.0,30.0,85,29.99,4.0,South,4.6,-,N/A,,Clear,180,2013-02-15 13:53:00
9:53 AM,37.9,30.0,73,29.99,7.0,South,6.9,-,N/A,,Clear,170,2013-02-15 14:53:00
10:53 AM,42.1,30.0,62,29.97,10.0,South,4.6,-,N/A,,Clear,170,2013-02-15 15:53:00
11:53 AM,46.0,30.0,54,29.94,10.0,SE,10.4,-,N/A,,Clear,140,2013-02-15 16:53:00
12:53 PM,48.0,28.9,48,29.91,10.0,South,15.0,20.7,N/A,,Partly Cloudy,180,2013-02-15 17:53:00
1:53 PM,50.0,27.0,41,29.90,10.0,SSW,15.0,28.8,N/A,,Partly Cloudy,200,2013-02-15 18:53:00
2:53 PM,48.0,30.9,52,29.90,10.0,South,10.4,-,N/A,,Clear,170,2013-02-15 19:53:00
3:53 PM,46.9,30.9,54,29.90,10.0,South,10.4,-,N/A,,Clear,180,2013-02-15 20:53:00
4:53 PM,46.0,32.0,58,29.91,10.0,South,9.2,-,N/A,,Clear,170,2013-02-15 21:53:00
5:53 PM,44.1,32.0,63,29.93,10.0,South,4.6,-,N/A,,Clear,180,2013-02-15 22:53:00
6:53 PM,41.0,30.9,67,29.93,10.0,SW,3.5,-,N/A,,Scattered Clouds,230,2013-02-15 23:53:00
7:53 PM,37.9,30.9,76,29.94,10.0,Calm,Calm,-,N/A,,Scattered Clouds,0,2013-02-16 00:53:00
8:53 PM,36.0,30.0,79,29.94,10.0,NNE,3.5,-,N/A,,Mostly Cloudy,20,2013-02-16 01:53:00
9:53 PM,33.1,28.0,82,29.94,10.0,Calm,Calm,-,N/A,,Mostly Cloudy,0,2013-02-16 02:53:00
10:53 PM,32.0,28.0,85,29.94,10.0,Calm,Calm,-,N/A,,Overcast,0,2013-02-16 03:53:00
11:53 PM,33.1,28.0,82,29.96,10.0,Calm,Calm,-,N/A,,Overcast,0,2013-02-16 04:53:00